Location: Nairn
(57.5833°N, 3.8667°W)
Time: 02:58:02
(UTC+00:00)

Vanguard 1 Rocket - Pass Details

Date: 30 November 2020
Orbit: 655 x 4221 km, 34.3° (Epoch: 20 January)

Event Time Altitude Azimuth Distance (km) Brightness Sun altitude
Exits shadow 04:24:34 27° 221° (SW) 5,354 10.8 -31.5°
Maximum altitude 04:31:31 32° 193° (SSW) 4,530 10.7 -30.5°
Drops below altitude 10° 04:43:51 10° 138° (SE) 4,818 11.5 -28.9°
Sets 04:47:22 0° 128° (SE) 5,383 12.0 -28.4°
